| time (UTC) | temp C | wind direction | speed KPH | gust KPH | rain 1hr cm | rain 24hr cm | rain mn cm | humidity % | barometer mb |
| 20260903054115 | 17 | 275 | 0.0 | 0.0 | 0.00 | 0.00 | 0.00 | 78 | |
| 20260903053913 | 17 | 275 | 0.0 | 0.0 | 0.00 | 0.00 | 0.00 | 78 | |
| 20260903053711 | 17 | 275 | 0.0 | 0.0 | 0.00 | 0.00 | 0.00 | 78 | |
| 20260903053509 | 17 | 275 | 0.0 | 0.0 | 0.00 | 0.00 | 0.00 | 79 | |
| 20260903053308 | 17 | 275 | 0.0 | 0.0 | 0.00 | 0.00 | 0.00 | 79 | |
| 20260903053106 | 17 | 275 | 0.0 | 0.0 | 0.00 | 0.00 | 0.00 | 78 | |
| 20260903052904 | 17 | 275 | 0.0 | 0.0 | 0.00 | 0.00 | 0.00 | 79 | |
| 20260903052702 | 17 | 275 | 0.0 | 0.0 | 0.00 | 0.00 | 0.00 | 79 | |
| 20260903052500 | 17 | 275 | 0.0 | 0.0 | 0.00 | 0.00 | 0.00 | 79 | |
| 20260903052258 | 17 | 275 | 0.0 | 0.0 | 0.00 | 0.00 | 0.00 | 79 | |
| 20260903052056 | 17 | 275 | 0.0 | 0.0 | 0.00 | 0.00 | 0.00 | 80 | |
| 20260903051854 | 17 | 275 | 0.0 | 0.0 | 0.00 | 0.00 | 0.00 | 80 | |
| 20260903051450 | 17 | 275 | 0.0 | 0.0 | 0.00 | 0.00 | 0.00 | 79 | |
| 20260903051249 | 18 | 275 | 0.0 | 0.0 | 0.00 | 0.00 | 0.00 | 79 | |
| 20260903051047 | 18 | 275 | 0.0 | 0.0 | 0.00 | 0.00 | 0.00 | 78 | |
| 20260903050845 | 18 | 275 | 0.0 | 0.0 | 0.00 | 0.00 | 0.00 | 78 | |
| 20260903050643 | 18 | 275 | 0.0 | 0.0 | 0.00 | 0.00 | 0.00 | 78 | |
| 20260903050441 | 18 | 275 | 0.0 | 0.0 | 0.00 | 0.00 | 0.00 | 78 | |
| 20260903050239 | 18 | 275 | 0.0 | 0.0 | 0.00 | 0.00 | 0.00 | 78 | |
| 20260903050037 | 18 | 275 | 0.0 | 0.0 | 0.00 | 0.00 | 0.00 | 77 | |
| 20260903045633 | 18 | 275 | 0.0 | 0.0 | 0.00 | 0.00 | 0.00 | 77 | |
| 20260903045433 | 18 | 275 | 0.0 | 0.0 | 0.00 | 0.00 | 0.00 | 77 | |
| 20260903045229 | 18 | 275 | 0.0 | 0.0 | 0.00 | 0.00 | 0.00 | 76 | |
| 20260903045028 | 18 | 275 | 0.0 | 0.0 | 0.00 | 0.00 | 0.00 | 76 | |
| 20260903044826 | 18 | 275 | 0.0 | 0.0 | 0.00 | 0.00 | 0.00 | 75 | |
| 20260903044624 | 18 | 275 | 0.0 | 0.0 | 0.00 | 0.00 | 0.00 | 75 | |
| 20260903044424 | 18 | 275 | 0.0 | 0.0 | 0.00 | 0.00 | 0.00 | 74 | |
| 20260903044220 | 18 | 275 | 0.0 | 0.0 | 0.00 | 0.00 | 0.00 | 74 | |
| 20260903044018 | 18 | 275 | 0.0 | 0.0 | 0.00 | 0.00 | 0.00 | 74 | |
| 20260903043816 | 18 | 275 | 0.0 | 0.0 | 0.00 | 0.00 | 0.00 | 74 | |
| 20260903043614 | 18 | 275 | 0.0 | 0.0 | 0.00 | 0.00 | 0.00 | 74 | |
| 20260903043412 | 18 | 275 | 0.0 | 0.0 | 0.00 | 0.00 | 0.00 | 73 | |
| 20260903043210 | 18 | 275 | 0.0 | 0.0 | 0.00 | 0.00 | 0.00 | 73 | |
| 20260903043008 | 18 | 275 | 0.0 | 0.0 | 0.00 | 0.00 | 0.00 | 74 | |
| 20260903042605 | 18 | 275 | 0.0 | 0.0 | 0.00 | 0.00 | 0.00 | 75 | |
| 20260903042403 | 18 | 275 | 0.0 | 0.0 | 0.00 | 0.00 | 0.00 | 75 | |
| 20260903041959 | 19 | 275 | 0.0 | 0.0 | 0.00 | 0.00 | 0.00 | 75 | |
| 20260903041757 | 19 | 275 | 0.0 | 0.0 | 0.00 | 0.00 | 0.00 | 74 | |
| 20260903041556 | 19 | 275 | 0.0 | 0.0 | 0.00 | 0.00 | 0.00 | 74 | |
| 20260903041353 | 19 | 275 | 0.0 | 0.0 | 0.00 | 0.00 | 0.00 | 74 | |
| 20260903041151 | 19 | 275 | 0.0 | 4.8 | 0.00 | 0.00 | 0.00 | 74 | |
| 20260903040949 | 19 | 275 | 0.0 | 4.8 | 0.00 | 0.00 | 0.00 | 74 | |
| 20260903040546 | 19 | 288 | 1.6 | 3.2 | 0.00 | 0.00 | 0.00 | 74 | |
| 20260903040344 | 19 | 289 | 1.6 | 3.2 | 0.00 | 0.00 | 0.00 | 73 | |
| 20260903040142 | 19 | 288 | 3.2 | 1.6 | 0.00 | 0.00 | 0.00 | 73 | |
| 20260903035940 | 20 | 289 | 1.6 | 1.6 | 0.00 | 0.00 | 0.00 | 71 | |
| 20260903035738 | 20 | 267 | 0.0 | 6.4 | 0.00 | 0.00 | 0.00 | 69 | |
| 20260903035334 | 20 | 260 | 0.0 | 6.4 | 0.00 | 0.00 | 0.00 | 69 | |
| 20260903034930 | 20 | 284 | 1.6 | 6.4 | 0.00 | 0.00 | 0.00 | 68 | |
| 20260903034729 | 20 | 298 | 4.8 | 4.8 | 0.00 | 0.00 | 0.00 | 67 | |
| 20260903034527 | 20 | 285 | 4.8 | 4.8 | 0.00 | 0.00 | 0.00 | 67 | |
| 20260903034325 | 20 | 292 | 1.6 | 4.8 | 0.00 | 0.00 | 0.00 | 66 | |
| 20260903034123 | 20 | 291 | 3.2 | 4.8 | 0.00 | 0.00 | 0.00 | 66 | |
| 20260903033921 | 20 | 305 | 3.2 | 4.8 | 0.00 | 0.00 | 0.00 | 65 | |
| 20260903033719 | 20 | 284 | 4.8 | 9.7 | 0.00 | 0.00 | 0.00 | 65 | |
| 20260903033517 | 20 | 288 | 3.2 | 9.7 | 0.00 | 0.00 | 0.00 | 64 | |
| 20260903033315 | 20 | 300 | 3.2 | 9.7 | 0.00 | 0.00 | 0.00 | 65 | |
| 20260903033113 | 20 | 310 | 3.2 | 9.7 | 0.00 | 0.00 | 0.00 | 64 | |
| 20260903032912 | 20 | 310 | 4.8 | 9.7 | 0.00 | 0.00 | 0.00 | 62 | |
| 20260903032710 | 20 | 300 | 6.4 | 8.0 | 0.00 | 0.00 | 0.00 | 63 | |
| 20260903032306 | 20 | 295 | 4.8 | 8.0 | 0.00 | 0.00 | 0.00 | 63 | |
| 20260903032104 | 20 | 306 | 4.8 | 9.7 | 0.00 | 0.00 | 0.00 | 65 | |
| 20260903031902 | 20 | 322 | 6.4 | 9.7 | 0.00 | 0.00 | 0.00 | 63 | |
| 20260903031700 | 20 | 302 | 6.4 | 6.4 | 0.00 | 0.00 | 0.00 | 62 | |
| 20260903031458 | 20 | 306 | 8.0 | 6.4 | 0.00 | 0.00 | 0.00 | 62 | |
| 20260903031256 | 20 | 303 | 4.8 | 6.4 | 0.00 | 0.00 | 0.00 | 60 | |
| 20260903031056 | 20 | 307 | 6.4 | 4.8 | 0.00 | 0.00 | 0.00 | 61 | |
| 20260903030852 | 20 | 310 | 3.2 | 4.8 | 0.00 | 0.00 | 0.00 | 59 | |
| 20260903030651 | 20 | 300 | 1.6 | 4.8 | 0.00 | 0.00 | 0.00 | 58 | |
| 20260903030449 | 20 | 312 | 1.6 | 4.8 | 0.00 | 0.00 | 0.00 | 58 | |
| 20260903030247 | 20 | 296 | 1.6 | 4.8 | 0.00 | 0.00 | 0.00 | 58 | |
| 20260903030045 | 20 | 310 | 4.8 | 4.8 | 0.00 | 0.00 | 0.00 | 58 | |
| 20260903025843 | 20 | 295 | 1.6 | 4.8 | 0.00 | 0.00 | 0.00 | 57 | |
| 20260903025641 | 20 | 302 | 1.6 | 0.0 | 0.00 | 0.00 | 0.00 | 57 | |
| 20260903025439 | 20 | 227 | 0.0 | 0.0 | 0.00 | 0.00 | 0.00 | 56 | |
| 20260903025237 | 21 | 227 | 0.0 | 0.0 | 0.00 | 0.00 | 0.00 | 56 | |
| 20260903025035 | 21 | 227 | 0.0 | 0.0 | 0.00 | 0.00 | 0.00 | 55 | |
| 20260903024833 | 21 | 227 | 0.0 | 0.0 | 0.00 | 0.00 | 0.00 | 55 | |
| 20260903024632 | 21 | 227 | 0.0 | 0.0 | 0.00 | 0.00 | 0.00 | 54 | |
| 20260903024429 | 21 | 227 | 0.0 | 0.0 | 0.00 | 0.00 | 0.00 | 54 | |
| 20260903024025 | 21 | 227 | 0.0 | 0.0 | 0.00 | 0.00 | 0.00 | 54 | |
| 20260903023823 | 21 | 227 | 0.0 | 0.0 | 0.00 | 0.00 | 0.00 | 53 | |
| 20260903023621 | 21 | 227 | 0.0 | 0.0 | 0.00 | 0.00 | 0.00 | 53 | |
| 20260903023419 | 21 | 206 | 0.0 | 0.0 | 0.00 | 0.00 | 0.00 | 53 | |
| 20260903023217 | 21 | 206 | 0.0 | 0.0 | 0.00 | 0.00 | 0.00 | 52 | |
| 20260903023015 | 21 | 206 | 0.0 | 0.0 | 0.00 | 0.00 | 0.00 | 52 | |
| 20260903022409 | 22 | 206 | 0.0 | 0.0 | 0.00 | 0.00 | 0.00 | 51 | |
| 20260903022207 | 22 | 206 | 0.0 | 1.6 | 0.00 | 0.00 | 0.00 | 50 | |
| 20260903021803 | 22 | 206 | 0.0 | 1.6 | 0.00 | 0.00 | 0.00 | 49 | |
| 20260903021604 | 22 | 206 | 0.0 | 0.0 | 0.00 | 0.00 | 0.00 | 49 | |
| 20260903021359 | 22 | 194 | 0.0 | 0.0 | 0.00 | 0.00 | 0.00 | 49 | |
| 20260903021158 | 22 | 258 | 0.0 | 1.6 | 0.00 | 0.00 | 0.00 | 48 | |
| 20260903020956 | 22 | 258 | 0.0 | 1.6 | 0.00 | 0.00 | 0.00 | 48 | |
| 20260903020754 | 22 | 258 | 0.0 | 1.6 | 0.00 | 0.00 | 0.00 | 48 | |
| 20260903020553 | 23 | 258 | 0.0 | 0.0 | 0.00 | 0.00 | 0.00 | 48 | |
| 20260903020350 | 23 | 258 | 0.0 | 0.0 | 0.00 | 0.00 | 0.00 | 48 | |
| 20260903020149 | 23 | 274 | 0.0 | 8.0 | 0.00 | 0.00 | 0.00 | 47 | |
| 20260903015947 | 23 | 274 | 0.0 | 8.0 | 0.00 | 0.00 | 0.00 | 47 | |
| 20260903015744 | 23 | 243 | 0.0 | 4.8 | 0.00 | 0.00 | 0.00 | 47 | |
| 20260903015542 | 23 | 243 | 0.0 | 4.8 | 0.00 | 0.00 | 0.00 | 47 | |
| 20260903015138 | 23 | 239 | 0.0 | 9.7 | 0.00 | 0.00 | 0.00 | 47 | |
| 20260903014936 | 23 | 288 | 1.6 | 9.7 | 0.00 | 0.00 | 0.00 | 47 | |
| 20260903014734 | 23 | 281 | 3.2 | 11.3 | 0.00 | 0.00 | 0.00 | 47 | |
| 20260903014532 | 23 | 262 | 0.0 | 11.3 | 0.00 | 0.00 | 0.00 | 47 | |
| 20260903014128 | 23 | 271 | 1.6 | 12.9 | 0.00 | 0.00 | 0.00 | 46 | |
| 20260903013926 | 23 | 219 | 0.0 | 12.9 | 0.00 | 0.00 | 0.00 | 46 | |
| 20260903013522 | 23 | 278 | 9.7 | 11.3 | 0.00 | 0.00 | 0.00 | 46 | |
| 20260903013320 | 24 | 177 | 1.6 | 11.3 | 0.00 | 0.00 | 0.00 | 45 | |
| 20260903013118 | 24 | 248 | 4.8 | 11.3 | 0.00 | 0.00 | 0.00 | 45 | |
| 20260903012916 | 24 | 260 | 6.4 | 11.3 | 0.00 | 0.00 | 0.00 | 45 | |
| 20260903012714 | 24 | 157 | 1.6 | 12.9 | 0.00 | 0.00 | 0.00 | 45 | |
| 20260903012310 | 24 | 344 | 0.0 | 12.9 | 0.00 | 0.00 | 0.00 | 44 | |
| 20260903011704 | 24 | 253 | 0.0 | 11.3 | 0.00 | 0.00 | 0.00 | 44 | |
| 20260903011502 | 24 | 213 | 1.6 | 11.3 | 0.00 | 0.00 | 0.00 | 44 | |
| 20260903011301 | 24 | 281 | 0.0 | 11.3 | 0.00 | 0.00 | 0.00 | 45 | |
| 20260903011058 | 24 | 282 | 4.8 | 11.3 | 0.00 | 0.00 | 0.00 | 45 | |
| 20260903010856 | 24 | 278 | 4.8 | 11.3 | 0.00 | 0.00 | 0.00 | 45 | |
| 20260903010655 | 24 | 270 | 3.2 | 12.9 | 0.00 | 0.00 | 0.00 | 45 | |
| 20260903010453 | 24 | 265 | 6.4 | 12.9 | 0.00 | 0.00 | 0.00 | 44 | |
| 20260903010048 | 24 | 274 | 6.4 | 16.1 | 0.00 | 0.00 | 0.00 | 45 | |
| 20260903005847 | 24 | 274 | 6.4 | 16.1 | 0.00 | 0.00 | 0.00 | 45 | |
| 20260903005443 | 24 | 268 | 12.9 | 12.9 | 0.00 | 0.00 | 0.00 | 44 | |
| 20260903005241 | 25 | 261 | 11.3 | 16.1 | 0.00 | 0.00 | 0.00 | 45 | |
| 20260903005041 | 24 | 262 | 11.3 | 16.1 | 0.00 | 0.00 | 0.00 | 45 | |
| 20260903004838 | 24 | 277 | 4.8 | 16.1 | 0.00 | 0.00 | 0.00 | 45 | |
| 20260903004635 | 24 | 275 | 9.7 | 20.9 | 0.00 | 0.00 | 0.00 | 45 | |
| 20260903004433 | 24 | 275 | 12.9 | 20.9 | 0.00 | 0.00 | 0.00 | 44 | |
| 20260903004239 | 24 | 268 | 11.3 | 22.5 | 0.00 | 0.00 | 0.00 | 44 | |
| 20260903004231 | 24 | 268 | 11.3 | 22.5 | 0.00 | 0.00 | 0.00 | 44 | |
| 20260903004029 | 24 | 264 | 14.5 | 22.5 | 0.00 | 0.00 | 0.00 | 43 | |
| 20260903003827 | 25 | 258 | 12.9 | 22.5 | 0.00 | 0.00 | 0.00 | 44 | |
| 20260903003625 | 25 | 255 | 9.7 | 17.7 | 0.00 | 0.00 | 0.00 | 44 | |
| 20260903003423 | 24 | 275 | 17.7 | 17.7 | 0.00 | 0.00 | 0.00 | 43 | |
| 20260903003221 | 25 | 255 | 12.9 | 19.3 | 0.00 | 0.00 | 0.00 | 44 | |
| 20260903003019 | 25 | 279 | 9.7 | 19.3 | 0.00 | 0.00 | 0.00 | 44 | |
| 20260903002615 | 25 | 264 | 8.0 | 24.1 | 0.00 | 0.00 | 0.00 | 45 | |
| 20260903002211 | 24 | 264 | 11.3 | 17.7 | 0.00 | 0.00 | 0.00 | 44 | |
| 20260903002009 | 25 | 277 | 12.9 | 17.7 | 0.00 | 0.00 | 0.00 | 44 | |
| 20260903001807 | 25 | 264 | 8.0 | 17.7 | 0.00 | 0.00 | 0.00 | 43 | |
| 20260903001605 | 25 | 261 | 9.7 | 16.1 | 0.00 | 0.00 | 0.00 | 43 | |
| 20260903001403 | 25 | 265 | 8.0 | 16.1 | 0.00 | 0.00 | 0.00 | 42 | |
| 20260903001201 | 25 | 265 | 11.3 | 11.3 | 0.00 | 0.00 | 0.00 | 41 | |
| 20260903000959 | 25 | 264 | 11.3 | 11.3 | 0.00 | 0.00 | 0.00 | 41 | |
| 20260903000757 | 26 | 272 | 9.7 | 11.3 | 0.00 | 0.00 | 0.00 | 41 | |
| 20260903000556 | 25 | 272 | 6.4 | 17.7 | 0.00 | 0.00 | 0.00 | 41 | |
| 20260903000355 | 25 | 248 | 4.8 | 17.7 | 0.00 | 0.00 | 0.00 | 40 | |
| 20260903000152 | 25 | 275 | 11.3 | 12.9 | 0.00 | 0.00 | 0.00 | 40 | |
| 20260902235950 | 25 | 243 | 9.7 | 12.9 | 0.00 | 0.00 | 0.00 | 40 | |
| 20260902235748 | 26 | 295 | 3.2 | 12.9 | 0.00 | 0.00 | 0.00 | 40 | |
| 20260902235546 | 25 | 299 | 8.0 | 16.1 | 0.00 | 0.00 | 0.00 | 40 | |
| 20260902235344 | 25 | 299 | 3.2 | 16.1 | 0.00 | 0.00 | 0.00 | 40 | |
| 20260902235142 | 25 | 270 | 9.7 | 17.7 | 0.00 | 0.00 | 0.00 | 39 | |
| 20260902234942 | 25 | 255 | 12.9 | 17.7 | 0.00 | 0.00 | 0.00 | 39 | |
| 20260902234334 | 25 | 316 | 3.2 | 20.9 | 0.00 | 0.00 | 0.00 | 40 | |
| 20260902234132 | 25 | 270 | 12.9 | 24.1 | 0.00 | 0.00 | 0.00 | 40 | |
| 20260902233930 | 25 | 285 | 8.0 | 24.1 | 0.00 | 0.00 | 0.00 | 40 | |
| 20260902233728 | 25 | 209 | 6.4 | 19.3 | 0.00 | 0.00 | 0.00 | 41 | |
| 20260902233528 | 25 | 230 | 6.4 | 19.3 | 0.00 | 0.00 | 0.00 | 41 | |
| 20260902233324 | 25 | 241 | 16.1 | 19.3 | 0.00 | 0.00 | 0.00 | 41 | |
| 20260902233122 | 25 | 274 | 9.7 | 11.3 | 0.00 | 0.00 | 0.00 | 42 | |
| 20260902232920 | 26 | 264 | 9.7 | 11.3 | 0.00 | 0.00 | 0.00 | 43 | |
| 20260902232720 | 25 | 205 | 0.0 | 20.9 | 0.00 | 0.00 | 0.00 | 43 | |
| 20260902232516 | 25 | 255 | 3.2 | 20.9 | 0.00 | 0.00 | 0.00 | 42 | |
| 20260902232314 | 25 | 222 | 9.7 | 20.9 | 0.00 | 0.00 | 0.00 | 43 | |
| 20260902232114 | 25 | 246 | 3.2 | 25.7 | 0.00 | 0.00 | 0.00 | 43 | |
| 20260902231911 | 25 | 229 | 9.7 | 25.7 | 0.00 | 0.00 | 0.00 | 43 | |
| 20260902231709 | 25 | 236 | 9.7 | 19.3 | 0.00 | 0.00 | 0.00 | 43 | |
| 20260902231508 | 25 | 248 | 12.9 | 19.3 | 0.00 | 0.00 | 0.00 | 43 | |
| 20260902231306 | 25 | 226 | 1.6 | 19.3 | 0.00 | 0.00 | 0.00 | 43 | |
| 20260902231105 | 25 | 278 | 12.9 | 25.7 | 0.00 | 0.00 | 0.00 | 43 | |
| 20260902230901 | 25 | 250 | 12.9 | 25.7 | 0.00 | 0.00 | 0.00 | 43 | |
| 20260902230659 | 25 | 255 | 14.5 | 25.7 | 0.00 | 0.00 | 0.00 | 42 | |
| 20260902230457 | 25 | 270 | 14.5 | 25.7 | 0.00 | 0.00 | 0.00 | 43 | |
| 20260902230255 | 25 | 282 | 14.5 | 25.7 | 0.00 | 0.00 | 0.00 | 43 | |
| 20260902230053 | 25 | 254 | 19.3 | 30.6 | 0.00 | 0.00 | 0.00 | 43 | |
| 20260902225851 | 25 | 253 | 3.2 | 30.6 | 0.00 | 0.00 | 0.00 | 44 | |
| 20260902225651 | 25 | 272 | 9.7 | 22.5 | 0.00 | 0.00 | 0.00 | 43 | |
| 20260902225043 | 25 | 185 | 1.6 | 19.3 | 0.00 | 0.00 | 0.00 | 43 | |
| 20260902224841 | 25 | 281 | 6.4 | 19.3 | 0.00 | 0.00 | 0.00 | 43 | |
| 20260902224641 | 25 | 261 | 16.1 | 25.7 | 0.00 | 0.00 | 0.00 | 43 | |
| 20260902224437 | 25 | 232 | 12.9 | 25.7 | 0.00 | 0.00 | 0.00 | 43 | |
| 20260902224033 | 25 | 274 | 9.7 | 20.9 | 0.00 | 0.00 | 0.00 | 43 | |
| 20260902223832 | 26 | 265 | 20.9 | 20.9 | 0.00 | 0.00 | 0.00 | 42 | |
| 20260902223630 | 26 | 264 | 14.5 | 20.9 | 0.00 | 0.00 | 0.00 | 42 | |
| 20260902223428 | 26 | 257 | 8.0 | 20.9 | 0.00 | 0.00 | 0.00 | 43 | |
| 20260902223226 | 26 | 268 | 9.7 | 27.4 | 0.00 | 0.00 | 0.00 | 45 | |
| 20260902223026 | 26 | 265 | 16.1 | 27.4 | 0.00 | 0.00 | 0.00 | 45 | |
| 20260902222822 | 26 | 271 | 12.9 | 27.4 | 0.00 | 0.00 | 0.00 | 44 | |
| 20260902222622 | 26 | 227 | 3.2 | 22.5 | 0.00 | 0.00 | 0.00 | 45 | |
| 20260902222216 | 26 | 274 | 17.7 | 19.3 | 0.00 | 0.00 | 0.00 | 44 | |
| 20260902222016 | 26 | 206 | 6.4 | 19.3 | 0.00 | 0.00 | 0.00 | 45 | |
| 20260902221813 | 26 | 260 | 8.0 | 19.3 | 0.00 | 0.00 | 0.00 | 46 | |
| 20260902221408 | 26 | 135 | 1.6 | 29.0 | 0.00 | 0.00 | 0.00 | 47 | |
| 20260902220804 | 25 | 253 | 22.5 | 29.0 | 0.00 | 0.00 | 0.00 | 46 | |
| 20260902220602 | 25 | 264 | 14.5 | 25.7 | 0.00 | 0.00 | 0.00 | 47 | |
| 20260902220158 | 26 | 255 | 17.7 | 22.5 | 0.00 | 0.00 | 0.00 | 44 | |
| 20260902215956 | 26 | 275 | 4.8 | 22.5 | 0.00 | 0.00 | 0.00 | 46 | |
| 20260902215754 | 26 | 123 | 3.2 | 22.5 | 0.00 | 0.00 | 0.00 | 47 | |
| 20260902215147 | 26 | 271 | 14.5 | 25.7 | 0.00 | 0.00 | 0.00 | 45 | |
| 20260902214946 | 26 | 262 | 20.9 | 25.7 | 0.00 | 0.00 | 0.00 | 46 | |
| 20260902214743 | 26 | 251 | 17.7 | 33.8 | 0.00 | 0.00 | 0.00 | 45 | |
| 20260902214542 | 26 | 257 | 14.5 | 33.8 | 0.00 | 0.00 | 0.00 | 46 | |
| 20260902214341 | 26 | 271 | 16.1 | 33.8 | 0.00 | 0.00 | 0.00 | 45 | |
| 20260902214138 | 25 | 257 | 11.3 | 25.7 | 0.00 | 0.00 | 0.00 | 46 | |
| 20260902213936 | 25 | 254 | 17.7 | 25.7 | 0.00 | 0.00 | 0.00 | 45 | |
| 20260902213735 | 26 | 267 | 4.8 | 27.4 | 0.00 | 0.00 | 0.00 | 46 | |
| 20260902213533 | 26 | 262 | 8.0 | 27.4 | 0.00 | 0.00 | 0.00 | 46 | |
| 20260902213330 | 26 | 292 | 11.3 | 27.4 | 0.00 | 0.00 | 0.00 | 46 | |
| 20260902213130 | 26 | 257 | 24.1 | 24.1 | 0.00 | 0.00 | 0.00 | 45 | |
| 20260902212927 | 25 | 270 | 14.5 | 24.1 | 0.00 | 0.00 | 0.00 | 46 | |
| 20260902212725 | 25 | 243 | 11.3 | 24.1 | 0.00 | 0.00 | 0.00 | 47 | |
| 20260902212522 | 26 | 246 | 0.0 | 24.1 | 0.00 | 0.00 | 0.00 | 47 | |
| 20260902212321 | 26 | 268 | 22.5 | 24.1 | 0.00 | 0.00 | 0.00 | 46 | |
| 20260902212119 | 26 | 261 | 9.7 | 25.7 | 0.00 | 0.00 | 0.00 | 46 | |
| 20260902211715 | 25 | 282 | 11.3 | 22.5 | 0.00 | 0.00 | 0.00 | 47 | |
| 20260902211513 | 26 | 258 | 16.1 | 22.5 | 0.00 | 0.00 | 0.00 | 46 | |
| 20260902211311 | 25 | 268 | 14.5 | 22.5 | 0.00 | 0.00 | 0.00 | 47 | |
| 20260902211109 | 25 | 278 | 6.4 | 25.7 | 0.00 | 0.00 | 0.00 | 47 | |
| 20260902210705 | 25 | 265 | 19.3 | 27.4 | 0.00 | 0.00 | 0.00 | 46 | |
| 20260902210502 | 26 | 270 | 14.5 | 27.4 | 0.00 | 0.00 | 0.00 | 46 | |
| 20260902210300 | 25 | 264 | 12.9 | 27.4 | 0.00 | 0.00 | 0.00 | 46 | |
| 20260902210058 | 26 | 275 | 12.9 | 24.1 | 0.00 | 0.00 | 0.00 | 45 | |
| 20260902205857 | 25 | 257 | 9.7 | 24.1 | 0.00 | 0.00 | 0.00 | 45 | |
| 20260902205656 | 25 | 296 | 11.3 | 24.1 | 0.00 | 0.00 | 0.00 | 46 | |
| 20260902205454 | 25 | 344 | 4.8 | 24.1 | 0.00 | 0.00 | 0.00 | 46 | |
| 20260902205252 | 25 | 281 | 16.1 | 24.1 | 0.00 | 0.00 | 0.00 | 46 | |
| 20260902205050 | 25 | 247 | 11.3 | 22.5 | 0.00 | 0.00 | 0.00 | 46 | |
| 20260902204646 | 25 | 250 | 3.2 | 27.4 | 0.00 | 0.00 | 0.00 | 48 | |
| 20260902204444 | 25 | 261 | 9.7 | 27.4 | 0.00 | 0.00 | 0.00 | 48 | |
| 20260902204242 | 25 | 255 | 14.5 | 27.4 | 0.00 | 0.00 | 0.00 | 48 | |
| 20260902204040 | 25 | 285 | 14.5 | 27.4 | 0.00 | 0.00 | 0.00 | 49 | |
| 20260902203838 | 25 | 281 | 9.7 | 27.4 | 0.00 | 0.00 | 0.00 | 49 | |
| 20260902203434 | 25 | 265 | 19.3 | 29.0 | 0.00 | 0.00 | 0.00 | 48 | |
| 20260902203232 | 25 | 234 | 19.3 | 22.5 | 0.00 | 0.00 | 0.00 | 48 | |
| 20260902203031 | 25 | 270 | 16.1 | 22.5 | 0.00 | 0.00 | 0.00 | 48 | |
| 20260902202829 | 26 | 271 | 11.3 | 22.5 | 0.00 | 0.00 | 0.00 | 48 | |
| 20260902202423 | 26 | 244 | 3.2 | 22.5 | 0.00 | 0.00 | 0.00 | 48 | |
| 20260902202221 | 25 | 262 | 19.3 | 22.5 | 0.00 | 0.00 | 0.00 | 48 | |
| 20260902201817 | 25 | 261 | 9.7 | 22.5 | 0.00 | 0.00 | 0.00 | 48 | |
| 20260902201617 | 26 | 260 | 14.5 | 22.5 | 0.00 | 0.00 | 0.00 | 47 | |
| 20260902201415 | 26 | 257 | 11.3 | 22.5 | 0.00 | 0.00 | 0.00 | 47 | |
| 20260902201009 | 25 | 257 | 12.9 | 24.1 | 0.00 | 0.00 | 0.00 | 46 | |
| 20260902200808 | 26 | 268 | 22.5 | 24.1 | 0.00 | 0.00 | 0.00 | 46 | |
| 20260902200001 | 25 | 277 | 14.5 | 20.9 | 0.00 | 0.00 | 0.00 | 45 | |
| 20260902195757 | 26 | 275 | 9.7 | 20.9 | 0.00 | 0.00 | 0.00 | 45 | |
| 20260902195557 | 26 | 275 | 14.5 | 20.9 | 0.00 | 0.00 | 0.00 | 44 | |
| 20260902195353 | 26 | 234 | 9.7 | 20.9 | 0.00 | 0.00 | 0.00 | 43 | |
| 20260902194749 | 26 | 264 | 11.3 | 24.1 | 0.00 | 0.00 | 0.00 | 43 | |
| 20260902194547 | 26 | 270 | 9.7 | 16.1 | 0.00 | 0.00 | 0.00 | 43 | |
| 20260902194500 | 26 | 250 | 11.3 | 16.1 | 0.00 | 0.00 | 0.00 | 43 | |
| 20260902194346 | 26 | 250 | 11.3 | 16.1 | 0.00 | 0.00 | 0.00 | 43 | |
| 20260902194142 | 26 | 180 | 1.6 | 17.7 | 0.00 | 0.00 | 0.00 | 44 | |
| 20260902193941 | 25 | 244 | 1.6 | 17.7 | 0.00 | 0.00 | 0.00 | 45 | |
| 20260902193740 | 25 | 277 | 1.6 | 19.3 | 0.00 | 0.00 | 0.00 | 45 | |
| 20260902193537 | 25 | 262 | 11.3 | 19.3 | 0.00 | 0.00 | 0.00 | 45 | |
| 20260902193335 | 25 | 265 | 12.9 | 19.3 | 0.00 | 0.00 | 0.00 | 44 | |
| 20260902193132 | 25 | 268 | 12.9 | 20.9 | 0.00 | 0.00 | 0.00 | 43 | |
| 20260902192930 | 25 | 275 | 11.3 | 20.9 | 0.00 | 0.00 | 0.00 | 44 | |
| 20260902192730 | 25 | 282 | 11.3 | 22.5 | 0.00 | 0.00 | 0.00 | 44 | |
| 20260902192124 | 25 | 284 | 9.7 | 20.9 | 0.00 | 0.00 | 0.00 | 44 | |
| 20260902191920 | 25 | 313 | 4.8 | 20.9 | 0.00 | 0.00 | 0.00 | 43 | |
| 20260902191720 | 25 | 267 | 16.1 | 19.3 | 0.00 | 0.00 | 0.00 | 42 | |
| 20260902191518 | 25 | 268 | 14.5 | 19.3 | 0.00 | 0.00 | 0.00 | 43 | |
| 20260902191316 | 25 | 248 | 6.4 | 19.3 | 0.00 | 0.00 | 0.00 | 44 | |
| 20260902191112 | 25 | 271 | 12.9 | 20.9 | 0.00 | 0.00 | 0.00 | 43 | |
| 20260902190912 | 25 | 278 | 12.9 | 20.9 | 0.00 | 0.00 | 0.00 | 43 | |
| 20260902190710 | 25 | 278 | 8.0 | 16.1 | 0.00 | 0.00 | 0.00 | 44 | |
| 20260902190306 | 25 | 255 | 1.6 | 16.1 | 0.00 | 0.00 | 0.00 | 44 | |
| 20260902185900 | 25 | 247 | 11.3 | 19.3 | 0.00 | 0.00 | 0.00 | 43 | |
| 20260902185658 | 25 | 264 | 14.5 | 20.9 | 0.00 | 0.00 | 0.00 | 44 | |
| 20260902185255 | 25 | 285 | 12.9 | 20.9 | 0.00 | 0.00 | 0.00 | 45 | |
| 20260902185052 | 25 | 262 | 9.7 | 27.4 | 0.00 | 0.00 | 0.00 | 45 | |
| 20260902184851 | 25 | 270 | 12.9 | 27.4 | 0.00 | 0.00 | 0.00 | 46 | |
| 20260902184651 | 25 | 261 | 17.7 | 22.5 | 0.00 | 0.00 | 0.00 | 46 | |
| 20260902184447 | 24 | 255 | 12.9 | 22.5 | 0.00 | 0.00 | 0.00 | 47 | |
| 20260902184245 | 25 | 277 | 12.9 | 20.9 | 0.00 | 0.00 | 0.00 | 46 | |
| 20260902184043 | 25 | 285 | 14.5 | 20.9 | 0.00 | 0.00 | 0.00 | 46 | |
| 20260902183841 | 25 | 296 | 3.2 | 20.9 | 0.00 | 0.00 | 0.00 | 47 | |
| 20260902183639 | 25 | 251 | 3.2 | 20.9 | 0.00 | 0.00 | 0.00 | 47 | |
| 20260902183439 | 24 | 288 | 11.3 | 20.9 | 0.00 | 0.00 | 0.00 | 47 | |
| 20260902183236 | 25 | 250 | 19.3 | 16.1 | 0.00 | 0.00 | 0.00 | 47 | |
| 20260902183034 | 25 | 250 | 11.3 | 16.1 | 0.00 | 0.00 | 0.00 | 47 | |
| 20260902182833 | 25 | 248 | 1.6 | 16.1 | 0.00 | 0.00 | 0.00 | 47 | |
| 20260902182721 | 25 | 299 | 3.2 | 16.1 | 0.00 | 0.00 | 0.00 | 48 | |
| 20260902182630 | 25 | 299 | 3.2 | 16.1 | 0.00 | 0.00 | 0.00 | 48 | |
| 20260902182429 | 24 | 285 | 9.7 | 16.1 | 0.00 | 0.00 | 0.00 | 47 | |
| 20260902182225 | 25 | 275 | 14.5 | 25.7 | 0.00 | 0.00 | 0.00 | 47 | |
| 20260902182024 | 25 | 275 | 9.7 | 25.7 | 0.00 | 0.00 | 0.00 | 47 | |
| 20260902181823 | 25 | 271 | 11.3 | 25.7 | 0.00 | 0.00 | 0.00 | 47 | |
| 20260902181619 | 24 | 329 | 4.8 | 14.5 | 0.00 | 0.00 | 0.00 | 49 | |
| 20260902181417 | 24 | 279 | 8.0 | 14.5 | 0.00 | 0.00 | 0.00 | 49 | |
| 20260902181013 | 24 | 270 | 12.9 | 14.5 | 0.00 | 0.00 | 0.00 | 50 | |
| 20260902180813 | 24 | 293 | 8.0 | 14.5 | 0.00 | 0.00 | 0.00 | 50 | |
| 20260902180409 | 23 | 219 | 0.0 | 16.1 | 0.00 | 0.00 | 0.00 | 52 | |
| 20260902180208 | 23 | 291 | 0.0 | 17.7 | 0.00 | 0.00 | 0.00 | 52 | |
| 20260902175803 | 23 | 279 | 12.9 | 17.7 | 0.00 | 0.00 | 0.00 | 52 | |
| 20260902175601 | 23 | 291 | 11.3 | 16.1 | 0.00 | 0.00 | 0.00 | 52 | |
| 20260902175357 | 23 | 227 | 0.0 | 16.1 | 0.00 | 0.00 | 0.00 | 53 | |
| 20260902175158 | 23 | 281 | 9.7 | 11.3 | 0.00 | 0.00 | 0.00 | 52 | |
| 20260902174954 | 23 | 264 | 14.5 | 11.3 | 0.00 | 0.00 | 0.00 | 52 | |
| 20260902174754 | 23 | 261 | 14.5 | 11.3 | 0.00 | 0.00 | 0.00 | 52 | |
| 20260902174550 | 23 | 262 | 3.2 | 14.5 | 0.00 | 0.00 | 0.00 | 52 | |
| 20260902174348 | 23 | 286 | 9.7 | 14.5 | 0.00 | 0.00 | 0.00 | 52 | |
| 20260902174148 | 23 | 268 | 9.7 | 16.1 | 0.00 | 0.00 | 0.00 | 51 | |
| 20260902173946 | 23 | 258 | 12.9 | 16.1 | 0.00 | 0.00 | 0.00 | 51 | |
| 20260902173742 | 24 | 300 | 8.0 | 14.5 | 0.00 | 0.00 | 0.00 | 51 | |
| 20260902173540 | 24 | 284 | 8.0 | 14.5 | 0.00 | 0.00 | 0.00 | 51 | |
| 20260902173338 | 24 | 225 | 0.0 | 14.5 | 0.00 | 0.00 | 0.00 | 52 | |
| 20260902173136 | 24 | 279 | 8.0 | 14.5 | 0.00 | 0.00 | 0.00 | 51 | |
| 20260902172934 | 24 | 254 | 11.3 | 14.5 | 0.00 | 0.00 | 0.00 | 51 | |
| 20260902172732 | 24 | 258 | 11.3 | 11.3 | 0.00 | 0.00 | 0.00 | 51 | |
| 20260902172530 | 24 | 246 | 0.0 | 11.3 | 0.00 | 0.00 | 0.00 | 52 | |
| 20260902172328 | 23 | 146 | 0.0 | 11.3 | 0.00 | 0.00 | 0.00 | 52 | |
| 20260902172126 | 24 | 288 | 6.4 | 4.8 | 0.00 | 0.00 | 0.00 | 51 | |
| 20260902171924 | 24 | 150 | 4.8 | 4.8 | 0.00 | 0.00 | 0.00 | 51 | |
| 20260902171645 | 23 | 154 | 0.0 | 6.4 | 0.00 | 0.00 | 0.00 | 53 | |
| 20260902171520 | 23 | 255 | 0.0 | 6.4 | 0.00 | 0.00 | 0.00 | 51 | |
| 20260902171318 | 23 | 154 | 0.0 | 6.4 | 0.00 | 0.00 | 0.00 | 53 | |
| 20260902171116 | 23 | 175 | 0.0 | 3.2 | 0.00 | 0.00 | 0.00 | 53 | |
| 20260902170858 | 23 | 222 | 0.0 | 8.0 | 0.00 | 0.00 | 0.00 | 53 | |
| 20260902170712 | 23 | 222 | 0.0 | 8.0 | 0.00 | 0.00 | 0.00 | 53 | |
| 20260902170510 | 23 | 222 | 0.0 | 8.0 | 0.00 | 0.00 | 0.00 | 53 | |
| 20260902170310 | 23 | 139 | 0.0 | 8.0 | 0.00 | 0.00 | 0.00 | 53 | |
| 20260902170106 | 23 | 139 | 0.0 | 8.0 | 0.00 | 0.00 | 0.00 | 53 | |
| 20260902165904 | 23 | 137 | 4.8 | 8.0 | 0.00 | 0.00 | 0.00 | 53 | |
| 20260902165702 | 23 | 102 | 6.4 | 9.7 | 0.00 | 0.00 | 0.00 | 53 | |
| 20260902165500 | 23 | 132 | 0.0 | 9.7 | 0.00 | 0.00 | 0.00 | 55 | |
| 20260902165259 | 23 | 116 | 3.2 | 9.7 | 0.00 | 0.00 | 0.00 | 55 | |
| 20260902165057 | 22 | 143 | 3.2 | 6.4 | 0.00 | 0.00 | 0.00 | 56 | |
| 20260902164855 | 22 | 104 | 8.0 | 6.4 | 0.00 | 0.00 | 0.00 | 57 | |
| 20260902164451 | 22 | 91 | 1.6 | 3.2 | 0.00 | 0.00 | 0.00 | 59 | |
| 20260902164251 | 21 | 275 | 0.0 | 3.2 | 0.00 | 0.00 | 0.00 | 59 | |
| 20260902164047 | 21 | 275 | 0.0 | 4.8 | 0.00 | 0.00 | 0.00 | 59 | |
| 20260902163845 | 21 | 172 | 0.0 | 4.8 | 0.00 | 0.00 | 0.00 | 60 | |
| 20260902163643 | 21 | 282 | 1.6 | 1.6 | 0.00 | 0.00 | 0.00 | 58 | |
| 20260902163441 | 21 | 258 | 1.6 | 1.6 | 0.00 | 0.00 | 0.00 | 59 | |
| 20260902163239 | 21 | 247 | 0.0 | 6.4 | 0.00 | 0.00 | 0.00 | 61 | |
| 20260902163037 | 21 | 210 | 0.0 | 6.4 | 0.00 | 0.00 | 0.00 | 60 | |
| 20260902162852 | 21 | 213 | 1.6 | 8.0 | 0.00 | 0.00 | 0.00 | 61 | |
| 20260902162835 | 21 | 210 | 0.0 | 6.4 | 0.00 | 0.00 | 0.00 | 61 | |
| 20260902162633 | 21 | 213 | 1.6 | 8.0 | 0.00 | 0.00 | 0.00 | 61 | |
| 20260902162431 | 20 | 260 | 0.0 | 8.0 | 0.00 | 0.00 | 0.00 | 61 | |
| 20260902162229 | 20 | 285 | 4.8 | 4.8 | 0.00 | 0.00 | 0.00 | 61 | |
| 20260902161825 | 20 | 234 | 0.0 | 4.8 | 0.00 | 0.00 | 0.00 | 64 | |
| 20260902161623 | 20 | 215 | 0.0 | 6.4 | 0.00 | 0.00 | 0.00 | 65 | |
| 20260902161421 | 20 | 215 | 0.0 | 6.4 | 0.00 | 0.00 | 0.00 | 65 | |
| 20260902161219 | 20 | 225 | 1.6 | 8.0 | 0.00 | 0.00 | 0.00 | 66 | |
| 20260902161018 | 20 | 241 | 0.0 | 8.0 | 0.00 | 0.00 | 0.00 | 66 | |
| 20260902160816 | 19 | 292 | 0.0 | 8.0 | 0.00 | 0.00 | 0.00 | 67 | |
| 20260902160614 | 19 | 262 | 1.6 | 8.0 | 0.00 | 0.00 | 0.00 | 67 | |
| 20260902160412 | 19 | 265 | 0.0 | 8.0 | 0.00 | 0.00 | 0.00 | 68 | |
| 20260902160210 | 19 | 285 | 3.2 | 6.4 | 0.00 | 0.00 | 0.00 | 69 | |
| 20260902155806 | 18 | 293 | 4.8 | 6.4 | 0.00 | 0.00 | 0.00 | 69 | |
| 20260902155604 | 18 | 299 | 4.8 | 0.0 | 0.00 | 0.00 | 0.00 | 71 | |
| 20260902155546 | 18 | 267 | 0.0 | 0.0 | 0.00 | 0.00 | 0.00 | 71 | |
| 20260902155430 | 18 | 267 | 0.0 | 0.0 | 0.00 | 0.00 | 0.00 | 72 | |
| 20260902155402 | 18 | 303 | 3.2 | 0.0 | 0.00 | 0.00 | 0.00 | 71 | |
| 20260902155200 | 18 | 267 | 0.0 | 0.0 | 0.00 | 0.00 | 0.00 | 71 | |
| 20260902154958 | 18 | 267 | 0.0 | 0.0 | 0.00 | 0.00 | 0.00 | 72 | |
| 20260902154800 | 18 | 267 | 0.0 | 6.4 | 0.00 | 0.00 | 0.00 | 72 | |
| 20260902154750 | 18 | 267 | 0.0 | 6.4 | 0.00 | 0.00 | 0.00 | 73 | |
| 20260902154555 | 18 | 267 | 0.0 | 6.4 | 0.00 | 0.00 | 0.00 | 72 | |
| 20260902154353 | 18 | 267 | 0.0 | 6.4 | 0.00 | 0.00 | 0.00 | 73 | |
| 20260902154151 | 17 | 267 | 1.6 | 0.0 | 0.00 | 0.00 | 0.00 | 73 | |
| 20260902153949 | 17 | 253 | 0.0 | 0.0 | 0.00 | 0.00 | 0.00 | 74 | |
| 20260902153748 | 17 | 227 | 0.0 | 0.0 | 0.00 | 0.00 | 0.00 | 74 | |
| 20260902153343 | 17 | 227 | 0.0 | 0.0 | 0.00 | 0.00 | 0.00 | 73 | |
| 20260902153141 | 17 | 227 | 0.0 | 0.0 | 0.00 | 0.00 | 0.00 | 74 | |
| 20260902152939 | 17 | 227 | 0.0 | 0.0 | 0.00 | 0.00 | 0.00 | 74 | |
| 20260902152535 | 17 | 227 | 0.0 | 0.0 | 0.00 | 0.00 | 0.00 | 74 | |
| 20260902152334 | 17 | 227 | 0.0 | 0.0 | 0.00 | 0.00 | 0.00 | 73 | |
| 20260902152132 | 17 | 227 | 0.0 | 0.0 | 0.00 | 0.00 | 0.00 | 73 | |
| 20260902151930 | 17 | 227 | 0.0 | 0.0 | 0.00 | 0.00 | 0.00 | 72 | |
| 20260902151728 | 17 | 227 | 0.0 | 0.0 | 0.00 | 0.00 | 0.00 | 72 | |
| 20260902151526 | 17 | 227 | 0.0 | 0.0 | 0.00 | 0.00 | 0.00 | 73 | |
| 20260902151324 | 17 | 227 | 0.0 | 0.0 | 0.00 | 0.00 | 0.00 | 71 | |
| 20260902151122 | 17 | 227 | 0.0 | 0.0 | 0.00 | 0.00 | 0.00 | 71 | |
| 20260902150920 | 17 | 227 | 0.0 | 0.0 | 0.00 | 0.00 | 0.00 | 71 | |
| 20260902150718 | 17 | 227 | 0.0 | 0.0 | 0.00 | 0.00 | 0.00 | 72 | |
| 20260902150349 | 17 | 63 | 0.0 | 0.0 | 0.00 | 0.00 | 0.00 | 73 | |
| 20260902150315 | 17 | 63 | 0.0 | 0.0 | 0.00 | 0.00 | 0.00 | 73 | |
| 20260902150113 | 17 | 63 | 0.0 | 0.0 | 0.00 | 0.00 | 0.00 | 74 | |
| 20260902145911 | 16 | 63 | 0.0 | 0.0 | 0.00 | 0.00 | 0.00 | 75 | |
| 20260902145507 | 16 | 63 | 0.0 | 3.2 | 0.00 | 0.00 | 0.00 | 77 | |
| 20260902145306 | 16 | 63 | 0.0 | 3.2 | 0.00 | 0.00 | 0.00 | 77 | |
| 20260902145103 | 16 | 63 | 0.0 | 4.8 | 0.00 | 0.00 | 0.00 | 78 | |
| 20260902144901 | 15 | 135 | 1.6 | 4.8 | 0.00 | 0.00 | 0.00 | 79 | |
| 20260902144659 | 15 | 104 | 1.6 | 4.8 | 0.00 | 0.00 | 0.00 | 79 | |
| 20260902144255 | 15 | 113 | 1.6 | 4.8 | 0.00 | 0.00 | 0.00 | 80 | |
| 20260902144054 | 15 | 119 | 3.2 | 4.8 | 0.00 | 0.00 | 0.00 | 80 | |
| 20260902143852 | 15 | 47 | 0.0 | 4.8 | 0.00 | 0.00 | 0.00 | 80 | |
| 20260902143650 | 14 | 113 | 3.2 | 4.8 | 0.00 | 0.00 | 0.00 | 80 | |
| 20260902143448 | 14 | 101 | 3.2 | 4.8 | 0.00 | 0.00 | 0.00 | 81 | |
| 20260902143246 | 14 | 106 | 3.2 | 4.8 | 0.00 | 0.00 | 0.00 | 81 | |
| 20260902143044 | 14 | 126 | 3.2 | 3.2 | 0.00 | 0.00 | 0.00 | 82 | |
| 20260902142842 | 14 | 116 | 3.2 | 3.2 | 0.00 | 0.00 | 0.00 | 82 | |
| 20260902142640 | 14 | 111 | 3.2 | 0.0 | 0.00 | 0.00 | 0.00 | 82 | |
| 20260902142438 | 13 | 61 | 0.0 | 0.0 | 0.00 | 0.00 | 0.00 | 82 | |
| 20260902142236 | 13 | 61 | 0.0 | 0.0 | 0.00 | 0.00 | 0.00 | 83 | |
| 20260902142034 | 13 | 61 | 0.0 | 0.0 | 0.00 | 0.00 | 0.00 | 83 | |
| 20260902141833 | 13 | 61 | 0.0 | 0.0 | 0.00 | 0.00 | 0.00 | 84 | |
| 20260902141631 | 13 | 61 | 0.0 | 0.0 | 0.00 | 0.00 | 0.00 | 84 | |
| 20260902141430 | 13 | 61 | 0.0 | 0.0 | 0.00 | 0.00 | 0.00 | 84 | |
| 20260902141227 | 13 | 61 | 0.0 | 0.0 | 0.00 | 0.00 | 0.00 | 84 | |
| 20260902141027 | 13 | 61 | 0.0 | 0.0 | 0.00 | 0.00 | 0.00 | 84 | |
| 20260902140823 | 13 | 61 | 0.0 | 0.0 | 0.00 | 0.00 | 0.00 | 84 | |
| 20260902140303 | 13 | 61 | 0.0 | 0.0 | 0.00 | 0.00 | 0.00 | 85 | |
| 20260902140217 | 13 | 61 | 0.0 | 0.0 | 0.00 | 0.00 | 0.00 | 84 | |
| 20260902135814 | 13 | 61 | 0.0 | 0.0 | 0.00 | 0.00 | 0.00 | 85 | |
| 20260902135612 | 13 | 61 | 0.0 | 0.0 | 0.00 | 0.00 | 0.00 | 85 | |
| 20260902135410 | 13 | 61 | 0.0 | 0.0 | 0.00 | 0.00 | 0.00 | 86 | |
| 20260902135208 | 12 | 61 | 0.0 | 0.0 | 0.00 | 0.00 | 0.00 | 86 | |
| 20260902134812 | 12 | 61 | 0.0 | 0.0 | 0.00 | 0.00 | 0.00 | 85 | |
| 20260902134604 | 12 | 61 | 0.0 | 0.0 | 0.00 | 0.00 | 0.00 | 85 | |
| 20260902134400 | 12 | 61 | 0.0 | 0.0 | 0.00 | 0.00 | 0.00 | 85 | |
| 20260902134200 | 12 | 61 | 0.0 | 0.0 | 0.00 | 0.00 | 0.00 | 85 | |
| 20260902133958 | 12 | 61 | 0.0 | 0.0 | 0.00 | 0.00 | 0.00 | 86 | |
| 20260902133754 | 12 | 61 | 0.0 | 0.0 | 0.00 | 0.00 | 0.00 | 86 | |
| 20260902133554 | 12 | 61 | 0.0 | 0.0 | 0.00 | 0.00 | 0.00 | 86 | |
| 20260902133151 | 12 | 61 | 0.0 | 0.0 | 0.00 | 0.00 | 0.00 | 86 | |
| 20260902132947 | 12 | 61 | 0.0 | 0.0 | 0.00 | 0.00 | 0.00 | 85 | |
| 20260902132745 | 12 | 61 | 0.0 | 0.0 | 0.00 | 0.00 | 0.00 | 86 | |
| 20260902132543 | 12 | 61 | 0.0 | 0.0 | 0.00 | 0.00 | 0.00 | 86 | |
| 20260902132341 | 12 | 61 | 0.0 | 0.0 | 0.00 | 0.00 | 0.00 | 86 | |
| 20260902132141 | 12 | 61 | 0.0 | 0.0 | 0.00 | 0.00 | 0.00 | 86 | |
| 20260902131937 | 12 | 61 | 0.0 | 0.0 | 0.00 | 0.00 | 0.00 | 86 | |
| 20260902131735 | 12 | 61 | 0.0 | 0.0 | 0.00 | 0.00 | 0.00 | 86 | |
| 20260902131534 | 12 | 61 | 0.0 | 0.0 | 0.00 | 0.00 | 0.00 | 86 | |
| 20260902131332 | 12 | 61 | 0.0 | 0.0 | 0.00 | 0.00 | 0.00 | 86 | |
| 20260902131130 | 12 | 61 | 0.0 | 0.0 | 0.00 | 0.00 | 0.00 | 86 | |
| 20260902130928 | 12 | 61 | 0.0 | 0.0 | 0.00 | 0.00 | 0.00 | 86 | |
| 20260902130524 | 12 | 61 | 0.0 | 0.0 | 0.00 | 0.00 | 0.00 | 86 | |
| 20260902130322 | 12 | 61 | 0.0 | 0.0 | 0.00 | 0.00 | 0.00 | 86 | |
| 20260902130120 | 12 | 61 | 0.0 | 0.0 | 0.00 | 0.00 | 0.00 | 86 | |
| 20260902125918 | 12 | 61 | 0.0 | 0.0 | 0.00 | 0.00 | 0.00 | 86 | |
| 20260902125716 | 12 | 61 | 0.0 | 0.0 | 0.00 | 0.00 | 0.00 | 86 | |
| 20260902125514 | 12 | 61 | 0.0 | 0.0 | 0.00 | 0.00 | 0.00 | 86 | |
| 20260902125313 | 12 | 61 | 0.0 | 0.0 | 0.00 | 0.00 | 0.00 | 86 | |
| 20260902125111 | 12 | 61 | 0.0 | 0.0 | 0.00 | 0.00 | 0.00 | 86 | |
| 20260902124909 | 12 | 61 | 0.0 | 0.0 | 0.00 | 0.00 | 0.00 | 86 | |
| 20260902124707 | 12 | 61 | 0.0 | 0.0 | 0.00 | 0.00 | 0.00 | 86 | |
| 20260902124303 | 12 | 61 | 0.0 | 0.0 | 0.00 | 0.00 | 0.00 | 86 | |
| 20260902124102 | 12 | 61 | 0.0 | 0.0 | 0.00 | 0.00 | 0.00 | 86 | |
| 20260902123859 | 12 | 61 | 0.0 | 0.0 | 0.00 | 0.00 | 0.00 | 86 | |
| 20260902123657 | 12 | 61 | 0.0 | 0.0 | 0.00 | 0.00 | 0.00 | 86 | |
| 20260902123455 | 12 | 61 | 0.0 | 0.0 | 0.00 | 0.00 | 0.00 | 87 | |
| 20260902123254 | 12 | 61 | 0.0 | 0.0 | 0.00 | 0.00 | 0.00 | 87 | |
| 20260902123052 | 12 | 61 | 0.0 | 0.0 | 0.00 | 0.00 | 0.00 | 87 | |
| 20260902122850 | 12 | 61 | 0.0 | 0.0 | 0.00 | 0.00 | 0.00 | 86 | |
| 20260902122648 | 12 | 61 | 0.0 | 0.0 | 0.00 | 0.00 | 0.00 | 86 | |
| 20260902122446 | 12 | 61 | 0.0 | 0.0 | 0.00 | 0.00 | 0.00 | 86 | |
| 20260902122244 | 12 | 61 | 0.0 | 0.0 | 0.00 | 0.00 | 0.00 | 87 | |
| 20260902122042 | 12 | 61 | 0.0 | 0.0 | 0.00 | 0.00 | 0.00 | 86 | |
| 20260902121840 | 12 | 61 | 0.0 | 0.0 | 0.00 | 0.00 | 0.00 | 86 | |
| 20260902121638 | 12 | 61 | 0.0 | 0.0 | 0.00 | 0.00 | 0.00 | 86 | |
| 20260902121436 | 12 | 61 | 0.0 | 0.0 | 0.00 | 0.00 | 0.00 | 86 | |
| 20260902121234 | 12 | 61 | 0.0 | 0.0 | 0.00 | 0.00 | 0.00 | 87 | |
| 20260902121033 | 12 | 61 | 0.0 | 0.0 | 0.00 | 0.00 | 0.00 | 87 | |
| 20260902120831 | 12 | 61 | 0.0 | 0.0 | 0.00 | 0.00 | 0.00 | 86 | |
| 20260902120629 | 12 | 61 | 0.0 | 0.0 | 0.00 | 0.00 | 0.00 | 87 | |
| 20260902120427 | 12 | 61 | 0.0 | 0.0 | 0.00 | 0.00 | 0.00 | 87 | |
| 20260902120023 | 12 | 61 | 0.0 | 0.0 | 0.00 | 0.00 | 0.00 | 86 | |
| 20260902115821 | 12 | 61 | 0.0 | 0.0 | 0.00 | 0.00 | 0.00 | 86 | |
| 20260902115619 | 12 | 61 | 0.0 | 0.0 | 0.00 | 0.00 | 0.00 | 86 | |
| 20260902115417 | 12 | 61 | 0.0 | 0.0 | 0.00 | 0.00 | 0.00 | 86 | |
| 20260902115215 | 12 | 61 | 0.0 | 0.0 | 0.00 | 0.00 | 0.00 | 85 | |
| 20260902115014 | 12 | 61 | 0.0 | 0.0 | 0.00 | 0.00 | 0.00 | 85 | |
| 20260902114812 | 12 | 61 | 0.0 | 0.0 | 0.00 | 0.00 | 0.00 | 85 | |
| 20260902114610 | 12 | 61 | 0.0 | 0.0 | 0.00 | 0.00 | 0.00 | 85 | |
| 20260902114408 | 12 | 61 | 0.0 | 0.0 | 0.00 | 0.00 | 0.00 | 85 | |
| 20260902113802 | 13 | 61 | 0.0 | 0.0 | 0.00 | 0.00 | 0.00 | 86 | |
| 20260902113600 | 13 | 61 | 0.0 | 0.0 | 0.00 | 0.00 | 0.00 | 86 | |
| 20260902113358 | 13 | 61 | 0.0 | 0.0 | 0.00 | 0.00 | 0.00 | 86 | |
| 20260902113156 | 13 | 61 | 0.0 | 0.0 | 0.00 | 0.00 | 0.00 | 86 | |
| 20260902112954 | 13 | 61 | 0.0 | 0.0 | 0.00 | 0.00 | 0.00 | 86 | |
| 20260902112752 | 13 | 61 | 0.0 | 0.0 | 0.00 | 0.00 | 0.00 | 86 | |
| 20260902112551 | 13 | 61 | 0.0 | 0.0 | 0.00 | 0.00 | 0.00 | 86 | |
| 20260902112349 | 13 | 61 | 0.0 | 0.0 | 0.00 | 0.00 | 0.00 | 86 | |
| 20260902112147 | 13 | 61 | 0.0 | 0.0 | 0.00 | 0.00 | 0.00 | 86 | |
| 20260902111945 | 13 | 61 | 0.0 | 0.0 | 0.00 | 0.00 | 0.00 | 86 | |
| 20260902111743 | 13 | 61 | 0.0 | 6.4 | 0.00 | 0.00 | 0.00 | 86 | |
| 20260902111541 | 13 | 61 | 0.0 | 6.4 | 0.00 | 0.00 | 0.00 | 86 | |
| 20260902111339 | 13 | 61 | 0.0 | 6.4 | 0.00 | 0.00 | 0.00 | 86 | |
| 20260902111137 | 13 | 61 | 0.0 | 0.0 | 0.00 | 0.00 | 0.00 | 86 | |
| 20260902110935 | 13 | 61 | 0.0 | 0.0 | 0.00 | 0.00 | 0.00 | 86 | |
| 20260902110734 | 13 | 33 | 0.0 | 0.0 | 0.00 | 0.00 | 0.00 | 86 | |
| 20260902110532 | 13 | 33 | 0.0 | 0.0 | 0.00 | 0.00 | 0.00 | 86 | |
| 20260902110330 | 13 | 33 | 0.0 | 0.0 | 0.00 | 0.00 | 0.00 | 86 | |
| 20260902110128 | 13 | 33 | 0.0 | 1.6 | 0.00 | 0.00 | 0.00 | 86 | |
| 20260902105926 | 13 | 33 | 0.0 | 1.6 | 0.00 | 0.00 | 0.00 | 86 | |
| 20260902105724 | 13 | 33 | 0.0 | 1.6 | 0.00 | 0.00 | 0.00 | 87 | |
| 20260902105522 | 13 | 33 | 0.0 | 1.6 | 0.00 | 0.00 | 0.00 | 87 | |
| 20260902105320 | 13 | 33 | 0.0 | 1.6 | 0.00 | 0.00 | 0.00 | 87 | |
| 20260902105118 | 13 | 54 | 0.0 | 0.0 | 0.00 | 0.00 | 0.00 | 87 | |
| 20260902104916 | 13 | 54 | 0.0 | 0.0 | 0.00 | 0.00 | 0.00 | 87 | |
| 20260902104714 | 13 | 54 | 0.0 | 3.2 | 0.00 | 0.00 | 0.00 | 87 | |
| 20260902104312 | 13 | 54 | 0.0 | 3.2 | 0.00 | 0.00 | 0.00 | 87 | |
| 20260902104111 | 13 | 54 | 0.0 | 4.8 | 0.00 | 0.00 | 0.00 | 87 | |
| 20260902103907 | 13 | 73 | 1.6 | 4.8 | 0.00 | 0.00 | 0.00 | 86 | |
| 20260902103705 | 13 | 104 | 3.2 | 3.2 | 0.00 | 0.00 | 0.00 | 86 | |
| 20260902103503 | 13 | 109 | 3.2 | 3.2 | 0.00 | 0.00 | 0.00 | 87 | |
| 20260902103301 | 13 | 70 | 0.0 | 3.2 | 0.00 | 0.00 | 0.00 | 87 | |
| 20260902103059 | 13 | 78 | 0.0 | 0.0 | 0.00 | 0.00 | 0.00 | 87 | |
| 20260902102857 | 13 | 78 | 0.0 | 0.0 | 0.00 | 0.00 | 0.00 | 87 | |
| 20260902102655 | 13 | 78 | 0.0 | 0.0 | 0.00 | 0.00 | 0.00 | 87 | |
| 20260902102454 | 13 | 78 | 0.0 | 0.0 | 0.00 | 0.00 | 0.00 | 87 | |
| 20260902102050 | 13 | 78 | 0.0 | 0.0 | 0.00 | 0.00 | 0.00 | 87 | |
| 20260902101848 | 13 | 78 | 0.0 | 0.0 | 0.00 | 0.00 | 0.00 | 86 | |
| 20260902101646 | 13 | 78 | 0.0 | 0.0 | 0.00 | 0.00 | 0.00 | 86 | |
| 20260902101444 | 13 | 78 | 0.0 | 0.0 | 0.00 | 0.00 | 0.00 | 86 | |
| 20260902101242 | 13 | 78 | 0.0 | 0.0 | 0.00 | 0.00 | 0.00 | 85 | |
| 20260902101040 | 13 | 78 | 0.0 | 0.0 | 0.00 | 0.00 | 0.00 | 85 | |
| 20260902100838 | 14 | 78 | 0.0 | 0.0 | 0.00 | 0.00 | 0.00 | 85 | |
| 20260902100636 | 14 | 78 | 0.0 | 3.2 | 0.00 | 0.00 | 0.00 | 85 | |
| 20260902100435 | 14 | 78 | 0.0 | 3.2 | 0.00 | 0.00 | 0.00 | 85 | |
| 20260902100233 | 14 | 78 | 0.0 | 4.8 | 0.00 | 0.00 | 0.00 | 86 | |
| 20260902100031 | 14 | 78 | 0.0 | 4.8 | 0.00 | 0.00 | 0.00 | 86 | |
| 20260902095829 | 14 | 94 | 0.0 | 4.8 | 0.00 | 0.00 | 0.00 | 86 | |
| 20260902095627 | 14 | 109 | 4.8 | 0.0 | 0.00 | 0.00 | 0.00 | 87 | |
| 20260902095425 | 14 | 50 | 0.0 | 0.0 | 0.00 | 0.00 | 0.00 | 86 | |
| 20260902095223 | 14 | 50 | 0.0 | 0.0 | 0.00 | 0.00 | 0.00 | 87 | |
| 20260902095021 | 14 | 50 | 0.0 | 0.0 | 0.00 | 0.00 | 0.00 | 87 | |
| 20260902094819 | 14 | 50 | 0.0 | 0.0 | 0.00 | 0.00 | 0.00 | 87 | |
| 20260902094617 | 14 | 50 | 0.0 | 1.6 | 0.00 | 0.00 | 0.00 | 87 | |
| 20260902094416 | 14 | 50 | 0.0 | 1.6 | 0.00 | 0.00 | 0.00 | 87 | |
| 20260902094214 | 14 | 50 | 0.0 | 3.2 | 0.00 | 0.00 | 0.00 | 87 | |
| 20260902094012 | 14 | 50 | 0.0 | 3.2 | 0.00 | 0.00 | 0.00 | 87 | |
| 20260902093810 | 14 | 56 | 0.0 | 3.2 | 0.00 | 0.00 | 0.00 | 87 | |
| 20260902093608 | 14 | 46 | 0.0 | 6.4 | 0.00 | 0.00 | 0.00 | 87 | |
| 20260902093406 | 14 | 46 | 0.0 | 6.4 | 0.00 | 0.00 | 0.00 | 87 | |
| 20260902093204 | 14 | 68 | 0.0 | 6.4 | 0.00 | 0.00 | 0.00 | 87 | |
| 20260902092800 | 14 | 85 | 4.8 | 6.4 | 0.00 | 0.00 | 0.00 | 86 | |
| 20260902092558 | 14 | 87 | 4.8 | 6.4 | 0.00 | 0.00 | 0.00 | 86 | |
| 20260902092357 | 14 | 81 | 1.6 | 6.4 | 0.00 | 0.00 | 0.00 | 86 | |
| 20260902092155 | 14 | 143 | 3.2 | 6.4 | 0.00 | 0.00 | 0.00 | 86 | |
| 20260902091953 | 14 | 71 | 0.0 | 6.4 | 0.00 | 0.00 | 0.00 | 86 | |
| 20260902091751 | 14 | 90 | 1.6 | 6.4 | 0.00 | 0.00 | 0.00 | 86 | |
| 20260902091549 | 14 | 101 | 1.6 | 4.8 | 0.00 | 0.00 | 0.00 | 86 | |
| 20260902091347 | 14 | 87 | 3.2 | 4.8 | 0.00 | 0.00 | 0.00 | 86 | |
| 20260902091145 | 14 | 94 | 3.2 | 8.0 | 0.00 | 0.00 | 0.00 | 86 | |
| 20260902090943 | 14 | 82 | 1.6 | 8.0 | 0.00 | 0.00 | 0.00 | 86 | |
| 20260902090743 | 14 | 73 | 0.0 | 0.0 | 0.00 | 0.00 | 0.00 | 86 | |
| 20260902090339 | 14 | 122 | 3.2 | 0.0 | 0.00 | 0.00 | 0.00 | 87 | |
| 20260902085935 | 14 | 291 | 0.0 | 0.0 | 0.00 | 0.00 | 0.00 | 86 | |
| 20260902085732 | 14 | 291 | 0.0 | 0.0 | 0.00 | 0.00 | 0.00 | 86 | |
| 20260902085530 | 14 | 291 | 0.0 | 0.0 | 0.00 | 0.00 | 0.00 | 86 | |
| 20260902085328 | 14 | 291 | 0.0 | 0.0 | 0.00 | 0.00 | 0.00 | 86 | |
| 20260902085126 | 14 | 291 | 0.0 | 0.0 | 0.00 | 0.00 | 0.00 | 86 | |
| 20260902084926 | 14 | 291 | 0.0 | 0.0 | 0.00 | 0.00 | 0.00 | 87 | |
| 20260902084520 | 14 | 291 | 0.0 | 0.0 | 0.00 | 0.00 | 0.00 | 87 | |
| 20260902084318 | 14 | 291 | 0.0 | 0.0 | 0.00 | 0.00 | 0.00 | 87 | |
| 20260902084117 | 14 | 291 | 0.0 | 0.0 | 0.00 | 0.00 | 0.00 | 87 | |
| 20260902083916 | 14 | 291 | 0.0 | 0.0 | 0.00 | 0.00 | 0.00 | 87 | |
| 20260902083713 | 14 | 291 | 0.0 | 0.0 | 0.00 | 0.00 | 0.00 | 87 | |
| 20260902083512 | 14 | 291 | 0.0 | 0.0 | 0.00 | 0.00 | 0.00 | 87 | |
| 20260902083309 | 14 | 291 | 0.0 | 0.0 | 0.00 | 0.00 | 0.00 | 86 | |
| 20260902083107 | 14 | 291 | 0.0 | 0.0 | 0.00 | 0.00 | 0.00 | 86 | |
| 20260902082907 | 14 | 291 | 0.0 | 0.0 | 0.00 | 0.00 | 0.00 | 86 | |
| 20260902082703 | 14 | 291 | 0.0 | 0.0 | 0.00 | 0.00 | 0.00 | 86 | |
| 20260902082501 | 14 | 291 | 0.0 | 0.0 | 0.00 | 0.00 | 0.00 | 86 | |
| 20260902082259 | 14 | 291 | 0.0 | 0.0 | 0.00 | 0.00 | 0.00 | 86 | |
| 20260902082057 | 14 | 291 | 0.0 | 0.0 | 0.00 | 0.00 | 0.00 | 86 | |
| 20260902081856 | 14 | 291 | 0.0 | 0.0 | 0.00 | 0.00 | 0.00 | 86 | |
| 20260902081453 | 14 | 291 | 0.0 | 0.0 | 0.00 | 0.00 | 0.00 | 86 | |
| 20260902081250 | 14 | 291 | 0.0 | 0.0 | 0.00 | 0.00 | 0.00 | 86 | |
| 20260902081048 | 14 | 291 | 0.0 | 0.0 | 0.00 | 0.00 | 0.00 | 86 | |
| 20260902080846 | 14 | 291 | 0.0 | 0.0 | 0.00 | 0.00 | 0.00 | 86 | |
| 20260902080644 | 14 | 291 | 0.0 | 0.0 | 0.00 | 0.00 | 0.00 | 86 | |
| 20260902080442 | 14 | 291 | 0.0 | 0.0 | 0.00 | 0.00 | 0.00 | 86 | |
| 20260902080240 | 14 | 291 | 0.0 | 0.0 | 0.00 | 0.00 | 0.00 | 86 | |
| 20260902080040 | 14 | 291 | 0.0 | 0.0 | 0.00 | 0.00 | 0.00 | 86 | |
| 20260902075837 | 14 | 291 | 0.0 | 0.0 | 0.00 | 0.00 | 0.00 | 86 | |
| 20260902075635 | 14 | 291 | 0.0 | 0.0 | 0.00 | 0.00 | 0.00 | 86 | |
| 20260902075433 | 14 | 291 | 0.0 | 0.0 | 0.00 | 0.00 | 0.00 | 86 | |
| 20260902075231 | 13 | 291 | 0.0 | 0.0 | 0.00 | 0.00 | 0.00 | 85 | |
| 20260902075029 | 13 | 291 | 0.0 | 0.0 | 0.00 | 0.00 | 0.00 | 85 | |
| 20260902074827 | 14 | 291 | 0.0 | 0.0 | 0.00 | 0.00 | 0.00 | 85 | |
| 20260902074625 | 14 | 291 | 0.0 | 0.0 | 0.00 | 0.00 | 0.00 | 85 | |
| 20260902074423 | 14 | 291 | 0.0 | 0.0 | 0.00 | 0.00 | 0.00 | 85 | |
| 20260902074221 | 14 | 291 | 0.0 | 0.0 | 0.00 | 0.00 | 0.00 | 85 | |
| 20260902074019 | 14 | 291 | 0.0 | 0.0 | 0.00 | 0.00 | 0.00 | 85 | |
| 20260902073817 | 14 | 291 | 0.0 | 0.0 | 0.00 | 0.00 | 0.00 | 85 | |
| 20260902073616 | 15 | 291 | 0.0 | 0.0 | 0.00 | 0.00 | 0.00 | 85 | |
| 20260902073414 | 15 | 291 | 0.0 | 0.0 | 0.00 | 0.00 | 0.00 | 85 | |
| 20260902073212 | 15 | 291 | 0.0 | 0.0 | 0.00 | 0.00 | 0.00 | 85 | |
| 20260902073010 | 15 | 291 | 0.0 | 0.0 | 0.00 | 0.00 | 0.00 | 85 | |
| 20260902072808 | 15 | 291 | 0.0 | 0.0 | 0.00 | 0.00 | 0.00 | 85 | |
| 20260902072606 | 15 | 291 | 0.0 | 0.0 | 0.00 | 0.00 | 0.00 | 85 | |
| 20260902072404 | 15 | 291 | 0.0 | 0.0 | 0.00 | 0.00 | 0.00 | 85 | |
| 20260902072202 | 15 | 291 | 0.0 | 0.0 | 0.00 | 0.00 | 0.00 | 84 | |
| 20260902072002 | 15 | 291 | 0.0 | 0.0 | 0.00 | 0.00 | 0.00 | 84 | |
| 20260902071758 | 15 | 291 | 0.0 | 0.0 | 0.00 | 0.00 | 0.00 | 84 | |
| 20260902071556 | 15 | 291 | 0.0 | 0.0 | 0.00 | 0.00 | 0.00 | 84 | |
| 20260902071355 | 15 | 291 | 0.0 | 0.0 | 0.00 | 0.00 | 0.00 | 84 | |
| 20260902071155 | 15 | 291 | 0.0 | 0.0 | 0.00 | 0.00 | 0.00 | 84 | |
| 20260902070951 | 15 | 291 | 0.0 | 0.0 | 0.00 | 0.00 | 0.00 | 84 | |
| 20260902070749 | 15 | 291 | 0.0 | 0.0 | 0.00 | 0.00 | 0.00 | 84 | |
| 20260902070547 | 15 | 291 | 0.0 | 0.0 | 0.00 | 0.00 | 0.00 | 84 | |
| 20260902070347 | 15 | 291 | 0.0 | 0.0 | 0.00 | 0.00 | 0.00 | 84 | |
| 20260902070145 | 15 | 291 | 0.0 | 0.0 | 0.00 | 0.00 | 0.00 | 84 | |
| 20260902065943 | 15 | 291 | 0.0 | 0.0 | 0.00 | 0.00 | 0.00 | 84 | |
| 20260902065739 | 15 | 291 | 0.0 | 0.0 | 0.00 | 0.00 | 0.00 | 83 | |
| 20260902065539 | 15 | 291 | 0.0 | 0.0 | 0.00 | 0.00 | 0.00 | 84 | |
| 20260902064932 | 15 | 291 | 0.0 | 3.2 | 0.00 | 0.00 | 0.00 | 83 | |
| 20260902064730 | 15 | 291 | 0.0 | 3.2 | 0.00 | 0.00 | 0.00 | 83 | |
| 20260902064528 | 15 | 291 | 0.0 | 3.2 | 0.00 | 0.00 | 0.00 | 83 | |
| 20260902064326 | 15 | 306 | 0.0 | 3.2 | 0.00 | 0.00 | 0.00 | 83 | |
| 20260902064124 | 15 | 305 | 3.2 | 0.0 | 0.00 | 0.00 | 0.00 | 83 | |
| 20260902063924 | 15 | 282 | 0.0 | 0.0 | 0.00 | 0.00 | 0.00 | 83 | |
| 20260902063720 | 15 | 282 | 0.0 | 3.2 | 0.00 | 0.00 | 0.00 | 83 | |
| 20260902063520 | 15 | 282 | 0.0 | 3.2 | 0.00 | 0.00 | 0.00 | 83 | |
| 20260902063317 | 15 | 282 | 0.0 | 3.2 | 0.00 | 0.00 | 0.00 | 83 | |
| 20260902063116 | 15 | 298 | 0.0 | 0.0 | 0.00 | 0.00 | 0.00 | 83 | |
| 20260902062915 | 15 | 302 | 1.6 | 0.0 | 0.00 | 0.00 | 0.00 | 83 | |
| 20260902062711 | 15 | 12 | 0.0 | 0.0 | 0.00 | 0.00 | 0.00 | 83 | |
| 20260902062511 | 15 | 12 | 0.0 | 0.0 | 0.00 | 0.00 | 0.00 | 83 | |
| 20260902062309 | 15 | 12 | 0.0 | 0.0 | 0.00 | 0.00 | 0.00 | 83 | |
| 20260902062105 | 15 | 12 | 0.0 | 0.0 | 0.00 | 0.00 | 0.00 | 83 | |
| 20260902061701 | 16 | 12 | 0.0 | 0.0 | 0.00 | 0.00 | 0.00 | 82 | |
| 20260902061257 | 16 | 12 | 0.0 | 0.0 | 0.00 | 0.00 | 0.00 | 83 | |
| 20260902061056 | 16 | 12 | 0.0 | 0.0 | 0.00 | 0.00 | 0.00 | 83 | |
| 20260902060856 | 16 | 12 | 0.0 | 0.0 | 0.00 | 0.00 | 0.00 | 83 | |
| 20260902060450 | 16 | 12 | 0.0 | 0.0 | 0.00 | 0.00 | 0.00 | 83 | |
| 20260902060250 | 16 | 12 | 0.0 | 0.0 | 0.00 | 0.00 | 0.00 | 82 | |
| 20260902060046 | 16 | 12 | 0.0 | 0.0 | 0.00 | 0.00 | 0.00 | 82 | |
| 20260902055642 | 16 | 12 | 0.0 | 0.0 | 0.00 | 0.00 | 0.00 | 82 | |
| 20260902055442 | 16 | 12 | 0.0 | 0.0 | 0.00 | 0.00 | 0.00 | 82 | |
| 20260902055240 | 16 | 12 | 0.0 | 0.0 | 0.00 | 0.00 | 0.00 | 82 | |
| 20260902055038 | 16 | 12 | 0.0 | 0.0 | 0.00 | 0.00 | 0.00 | 82 | |
| 20260902054837 | 16 | 12 | 0.0 | 0.0 | 0.00 | 0.00 | 0.00 | 82 | |
| 20260902054433 | 16 | 12 | 0.0 | 0.0 | 0.00 | 0.00 | 0.00 | 82 | |
| 20260902054229 | 16 | 12 | 0.0 | 0.0 | 0.00 | 0.00 | 0.00 | 82 |